User: anonymous   Login
Location: Lafig�re
(44.4503°N, 4.0357°E)
Time: 08:08:41
(UTC+00:00)
Language:

H-2A R/B - Orbit

View from above orbital plane
View from above orbital plane
View from above satellite
View from above satellite

Ground track
Ground track

The orbit data is extracted from the following two-line orbital elements,

1 27601U 02056E   21209.91248889  .00000057  00000-0  35114-4 0  9992
2 27601  98.1879 229.8385 0072874 145.4849 282.8051 14.32004719972869
Epoch (UTC): 28 July 2021 21:53:59
Eccentricity: 0.0072874
inclination: 98.1879°
perigee height: 733 km
apogee height: 837 km
right ascension of ascending node: 229.8385°
argument of perigee: 145.4849°
revolutions per day: 14.32004719
mean anomaly at epoch: 282.8051°
orbit number at epoch: 97286

The dashed part of the orbit path shows where the satellite is in the earth's shadow,  

DLR